Location: Bryzozowice
(50.3667°N, 18.9667°E)
Time: 13:28:25
(UTC+00:00)

ATLAS 5 CENTAUR R/B - Pass Details

Date: 24 January 2020
Orbit: 550 x 1108 km, 63.4° (Epoch: 09 February)

Event Time Altitude Azimuth Distance (km) Brightness Sun altitude
Rises 17:07:58 0° 280° (W) 2,899 6.3 -16.5°
Reaches altitude 10° 17:10:36 10° 297° (WNW) 2,070 5.0 -16.9°
Maximum altitude 17:14:13 21° 348° (NNW) 1,556 3.6 -17.5°
Enters shadow 17:16:59 15° 27° (NNE) 1,983 3.8 -17.9°
